Time,TemperatureF,DewpointF,PressureIn,WindDirection,WindDirectionDegrees,WindSpeedMPH,WindSpeedGustMPH,Humidity,HourlyPrecipIn,Conditions,Clouds,dailyrainin,SoftwareType,DateUTC
2013-01-13 00:23:00,41.0,41.0,-100.00,West,260,0.0,1.0,99,-99.99,,,-99.99,,2013-01-13 05:23:00,
2013-01-13 00:32:00,41.0,41.0,-100.00,West,270,1.0,2.0,99,-99.99,,,-99.99,,2013-01-13 05:32:00,
2013-01-13 00:42:00,42.0,41.0,-100.00,ENE,65,1.0,2.0,99,-99.99,,,-99.99,,2013-01-13 05:42:00,
2013-01-13 00:52:00,42.0,41.0,-100.00,SW,225,0.0,1.0,99,-99.99,,,-99.99,,2013-01-13 05:52:00,
2013-01-13 01:03:00,42.0,41.0,-100.00,NE,55,0.0,1.0,99,-99.99,,,-99.99,,2013-01-13 06:03:00,
2013-01-13 01:12:00,42.0,41.0,-100.00,East,100,0.0,1.0,99,-99.99,,,-99.99,,2013-01-13 06:12:00,
2013-01-13 01:22:00,41.0,41.0,-100.00,SW,215,1.0,2.0,100,-99.99,,,-99.99,,2013-01-13 06:22:00,
2013-01-13 01:32:00,41.0,41.0,-100.00,WNW,300,2.0,3.0,99,-99.99,,,-99.99,,2013-01-13 06:32:00,
2013-01-13 01:42:00,42.0,42.0,-100.00,WNW,290,2.0,3.0,99,-99.99,,,-99.99,,2013-01-13 06:42:00,
2013-01-13 01:52:00,42.0,42.0,-100.00,NNE,30,2.0,3.0,99,-99.99,,,-99.99,,2013-01-13 06:52:00,
2013-01-13 02:02:00,42.0,42.0,-100.00,WNW,290,2.0,3.0,99,-99.99,,,-99.99,,2013-01-13 07:02:00,
2013-01-13 02:12:00,42.0,42.0,-100.00,NW,320,0.0,3.0,99,-99.99,,,-99.99,,2013-01-13 07:12:00,
2013-01-13 02:22:00,42.0,41.0,-100.00,West,280,2.0,3.0,99,-99.99,,,-99.99,,2013-01-13 07:22:00,
2013-01-13 02:32:00,42.0,41.0,-100.00,NW,315,1.0,3.0,99,-99.99,,,-99.99,,2013-01-13 07:32:00,
2013-01-13 02:42:00,42.0,41.0,-100.00,NNW,340,1.0,2.0,99,-99.99,,,-99.99,,2013-01-13 07:42:00,
2013-01-13 02:52:00,42.0,41.0,-100.00,West,280,1.0,3.0,99,-99.99,,,-99.99,,2013-01-13 07:52:00,
2013-01-13 03:02:00,42.0,42.0,-100.00,East,95,0.0,2.0,100,-99.99,,,-99.99,,2013-01-13 08:02:00,
2013-01-13 03:12:00,42.0,42.0,-100.00,ENE,75,1.0,5.0,100,-99.99,,,-99.99,,2013-01-13 08:12:00,
2013-01-13 03:22:00,42.0,42.0,-100.00,NW,305,1.0,2.0,99,-99.99,,,-99.99,,2013-01-13 08:22:00,
2013-01-13 03:32:00,42.0,42.0,-100.00,NW,310,1.0,5.0,100,-99.99,,,-99.99,,2013-01-13 08:32:00,
2013-01-13 03:42:00,42.0,42.0,-100.00,NNW,335,3.0,6.0,100,-99.99,,,-99.99,,2013-01-13 08:42:00,
2013-01-13 03:52:00,42.0,42.0,-100.00,NNE,15,1.0,3.0,100,-99.99,,,-99.99,,2013-01-13 08:52:00,
2013-01-13 04:02:00,42.0,42.0,-100.00,NW,315,1.0,5.0,99,-99.99,,,-99.99,,2013-01-13 09:02:00,
2013-01-13 04:12:00,42.0,42.0,-100.00,NNW,330,2.0,5.0,99,-99.99,,,-99.99,,2013-01-13 09:12:00,
2013-01-13 04:22:00,42.0,42.0,-100.00,NW,305,1.0,3.0,99,-99.99,,,-99.99,,2013-01-13 09:22:00,
2013-01-13 04:32:00,42.0,42.0,-100.00,NW,305,2.0,5.0,99,-99.99,,,-99.99,,2013-01-13 09:32:00,
2013-01-13 04:42:00,42.0,42.0,-100.00,NNW,335,2.0,5.0,100,-99.99,,,-99.99,,2013-01-13 09:42:00,
2013-01-13 04:52:00,42.0,42.0,-100.00,NW,325,3.0,6.0,99,-99.99,,,-99.99,,2013-01-13 09:52:00,
2013-01-13 05:03:00,42.0,42.0,-100.00,NW,325,3.0,6.0,99,-99.99,,,-99.99,,2013-01-13 10:03:00,
2013-01-13 05:12:00,42.0,42.0,-100.00,WNW,285,1.0,3.0,100,-99.99,,,-99.99,,2013-01-13 10:12:00,
2013-01-13 05:22:00,42.0,41.0,-100.00,NW,320,2.0,5.0,99,-99.99,,,-99.99,,2013-01-13 10:22:00,
2013-01-13 05:32:00,42.0,42.0,-100.00,NW,310,2.0,7.0,99,-99.99,,,-99.99,,2013-01-13 10:32:00,
2013-01-13 05:42:00,42.0,42.0,-100.00,ENE,70,1.0,5.0,100,-99.99,,,-99.99,,2013-01-13 10:42:00,
2013-01-13 05:52:00,42.0,42.0,-100.00,SW,230,1.0,2.0,99,-99.99,,,-99.99,,2013-01-13 10:52:00,
2013-01-13 06:52:00,42.0,42.0,-100.00,South,185,0.0,2.0,100,-99.99,,,-99.99,,2013-01-13 11:52:00,
2013-01-13 08:12:00,43.0,43.0,-100.00,WNW,295,2.0,5.0,99,-99.99,,,-99.99,,2013-01-13 13:12:00,
2013-01-13 08:22:00,43.0,43.0,-100.00,WNW,300,1.0,3.0,100,-99.99,,,-99.99,,2013-01-13 13:22:00,
2013-01-13 08:33:00,43.0,43.0,-100.00,NNW,335,1.0,3.0,100,-99.99,,,-99.99,,2013-01-13 13:33:00,
2013-01-13 08:42:00,43.0,43.0,-100.00,North,10,1.0,3.0,99,-99.99,,,-99.99,,2013-01-13 13:42:00,
2013-01-13 08:53:00,43.0,43.0,-100.00,WNW,295,2.0,3.0,100,-99.99,,,-99.99,,2013-01-13 13:53:00,
2013-01-13 09:03:00,44.0,44.0,-100.00,WNW,295,2.0,3.0,100,-99.99,,,-99.99,,2013-01-13 14:03:00,
2013-01-13 09:13:00,44.0,44.0,-100.00,WNW,290,2.0,3.0,100,-99.99,,,-99.99,,2013-01-13 14:13:00,
2013-01-13 09:22:00,44.0,43.0,-100.00,WNW,295,3.0,5.0,99,-99.99,,,-99.99,,2013-01-13 14:22:00,
2013-01-13 09:33:00,44.0,44.0,-100.00,WNW,290,3.0,5.0,100,-99.99,,,-99.99,,2013-01-13 14:33:00,
2013-01-13 09:43:00,44.0,44.0,-100.00,WNW,295,3.0,5.0,99,-99.99,,,-99.99,,2013-01-13 14:43:00,
2013-01-13 09:53:00,44.0,44.0,-100.00,NNW,340,2.0,6.0,99,-99.99,,,-99.99,,2013-01-13 14:53:00,
2013-01-13 10:03:00,45.0,44.0,-100.00,NNW,335,2.0,5.0,99,-99.99,,,-99.99,,2013-01-13 15:03:00,
2013-01-13 10:13:00,45.0,45.0,-100.00,WNW,295,2.0,5.0,99,-99.99,,,-99.99,,2013-01-13 15:13:00,
2013-01-13 10:23:00,45.0,45.0,-100.00,WNW,300,2.0,3.0,100,-99.99,,,-99.99,,2013-01-13 15:23:00,
2013-01-13 10:33:00,45.0,45.0,-100.00,WNW,285,2.0,5.0,100,-99.99,,,-99.99,,2013-01-13 15:33:00,
2013-01-13 10:43:00,46.0,46.0,-100.00,WNW,290,3.0,6.0,100,-99.99,,,-99.99,,2013-01-13 15:43:00,
2013-01-13 10:52:00,46.0,46.0,-100.00,North,0,2.0,5.0,99,-99.99,,,-99.99,,2013-01-13 15:52:00,
2013-01-13 11:04:00,46.0,46.0,-100.00,North,0,2.0,5.0,99,-99.99,,,-99.99,,2013-01-13 16:04:00,
2013-01-13 11:13:00,46.0,46.0,-100.00,WNW,285,2.0,8.0,99,-99.99,,,-99.99,,2013-01-13 16:13:00,
2013-01-13 11:23:00,46.0,46.0,-100.00,WNW,285,2.0,8.0,99,-99.99,,,-99.99,,2013-01-13 16:23:00,
2013-01-13 11:33:00,46.0,46.0,-100.00,WNW,285,2.0,6.0,99,-99.99,,,-99.99,,2013-01-13 16:33:00,
2013-01-13 11:43:00,47.0,46.0,-100.00,NW,310,2.0,5.0,99,-99.99,,,-99.99,,2013-01-13 16:43:00,
2013-01-13 11:53:00,47.0,47.0,-100.00,NNE,25,2.0,6.0,99,-99.99,,,-99.99,,2013-01-13 16:53:00,
2013-01-13 12:03:00,47.0,47.0,-100.00,NW,310,2.0,5.0,99,-99.99,,,-99.99,,2013-01-13 17:03:00,
2013-01-13 12:13:00,47.0,47.0,-100.00,NNW,330,3.0,5.0,99,-99.99,,,-99.99,,2013-01-13 17:13:00,
2013-01-13 12:22:00,47.0,47.0,-100.00,NNW,330,3.0,5.0,99,-99.99,,,-99.99,,2013-01-13 17:22:00,
2013-01-13 12:33:00,47.0,47.0,-100.00,WNW,295,2.0,6.0,99,-99.99,,,-99.99,,2013-01-13 17:33:00,
2013-01-13 12:43:00,48.0,47.0,-100.00,North,355,2.0,7.0,98,-99.99,,,-99.99,,2013-01-13 17:43:00,
2013-01-13 12:53:00,48.0,47.0,-100.00,North,355,3.0,6.0,97,-99.99,,,-99.99,,2013-01-13 17:53:00,
2013-01-13 13:03:00,48.0,47.0,-100.00,North,355,3.0,6.0,98,-99.99,,,-99.99,,2013-01-13 18:03:00,
2013-01-13 13:12:00,49.0,48.0,-100.00,NNE,15,2.0,7.0,97,-99.99,,,-99.99,,2013-01-13 18:12:00,
2013-01-13 13:23:00,48.0,48.0,-100.00,WNW,300,2.0,8.0,97,-99.99,,,-99.99,,2013-01-13 18:23:00,
2013-01-13 13:33:00,49.0,48.0,-100.00,WNW,295,5.0,9.0,97,-99.99,,,-99.99,,2013-01-13 18:33:00,
2013-01-13 13:43:00,49.0,48.0,-100.00,North,350,3.0,8.0,96,-99.99,,,-99.99,,2013-01-13 18:43:00,
2013-01-13 13:53:00,49.0,48.0,-100.00,WNW,285,5.0,9.0,97,-99.99,,,-99.99,,2013-01-13 18:53:00,
2013-01-13 14:03:00,49.0,48.0,-100.00,NNW,335,5.0,10.0,96,-99.99,,,-99.99,,2013-01-13 19:03:00,
2013-01-13 14:12:00,50.0,48.0,-100.00,NNW,340,3.0,9.0,95,-99.99,,,-99.99,,2013-01-13 19:12:00,
2013-01-13 14:23:00,50.0,49.0,-100.00,NW,325,3.0,8.0,95,-99.99,,,-99.99,,2013-01-13 19:23:00,
2013-01-13 14:53:00,51.0,49.0,-100.00,NW,320,3.0,8.0,94,-99.99,,,-99.99,,2013-01-13 19:53:00,
2013-01-13 15:33:00,51.0,49.0,-100.00,WNW,295,5.0,8.0,93,-99.99,,,-99.99,,2013-01-13 20:33:00,
2013-01-13 16:03:00,51.0,49.0,-100.00,WNW,300,5.0,9.0,94,-99.99,,,-99.99,,2013-01-13 21:03:00,
2013-01-13 16:13:00,51.0,49.0,-100.00,NW,320,3.0,13.0,93,-99.99,,,-99.99,,2013-01-13 21:13:00,
2013-01-13 16:23:00,51.0,49.0,-100.00,NW,325,3.0,8.0,93,-99.99,,,-99.99,,2013-01-13 21:23:00,
2013-01-13 16:30:00,51.0,49.0,-100.00,NW,305,5.0,8.0,94,-99.99,,,-99.99,,2013-01-13 21:30:00,
2013-01-13 16:33:00,51.0,49.0,-100.00,WNW,300,3.0,8.0,93,-99.99,,,-99.99,,2013-01-13 21:33:00,
2013-01-13 16:43:00,51.0,49.0,-100.00,NW,315,2.0,7.0,93,-99.99,,,-99.99,,2013-01-13 21:43:00,
2013-01-13 16:52:00,51.0,49.0,-100.00,NW,310,3.0,9.0,94,-99.99,,,-99.99,,2013-01-13 21:52:00,
2013-01-13 17:03:00,51.0,49.0,-100.00,NW,310,3.0,9.0,94,-99.99,,,-99.99,,2013-01-13 22:03:00,
2013-01-13 17:13:00,51.0,49.0,-100.00,NW,305,5.0,8.0,94,-99.99,,,-99.99,,2013-01-13 22:13:00,
2013-01-13 17:23:00,51.0,49.0,-100.00,NW,305,5.0,8.0,94,-99.99,,,-99.99,,2013-01-13 22:23:00,
2013-01-13 17:53:00,51.0,49.0,-100.00,WNW,300,3.0,9.0,94,-99.99,,,-99.99,,2013-01-13 22:53:00,
2013-01-13 18:03:00,51.0,49.0,-100.00,NW,315,5.0,10.0,94,-99.99,,,-99.99,,2013-01-13 23:03:00,
2013-01-13 18:12:00,51.0,49.0,-100.00,NNW,335,5.0,12.0,94,-99.99,,,-99.99,,2013-01-13 23:12:00,
2013-01-13 18:23:00,51.0,49.0,-100.00,NW,315,3.0,9.0,94,-99.99,,,-99.99,,2013-01-13 23:23:00,
2013-01-13 18:33:00,51.0,49.0,-100.00,NNW,335,3.0,10.0,94,-99.99,,,-99.99,,2013-01-13 23:33:00,
2013-01-13 18:43:00,51.0,49.0,-100.00,NNW,335,5.0,10.0,94,-99.99,,,-99.99,,2013-01-13 23:43:00,
2013-01-13 18:53:00,51.0,49.0,-100.00,NNW,335,5.0,10.0,94,-99.99,,,-99.99,,2013-01-13 23:53:00,
2013-01-13 19:03:00,51.0,49.0,-100.00,NNW,335,6.0,14.0,94,-99.99,,,-99.99,,2013-01-14 00:03:00,
2013-01-13 19:13:00,51.0,49.0,-100.00,NW,325,5.0,10.0,94,-99.99,,,-99.99,,2013-01-14 00:13:00,
2013-01-13 19:23:00,51.0,49.0,-100.00,WNW,295,3.0,14.0,93,-99.99,,,-99.99,,2013-01-14 00:23:00,
2013-01-13 19:43:00,51.0,49.0,-100.00,NW,315,2.0,10.0,93,-99.99,,,-99.99,,2013-01-14 00:43:00,
2013-01-13 19:52:00,51.0,49.0,-100.00,NW,315,2.0,10.0,93,-99.99,,,-99.99,,2013-01-14 00:52:00,
2013-01-13 20:03:00,50.0,49.0,-100.00,West,270,2.0,7.0,94,-99.99,,,-99.99,,2013-01-14 01:03:00,
2013-01-13 20:13:00,50.0,49.0,-100.00,North,5,2.0,6.0,94,-99.99,,,-99.99,,2013-01-14 01:13:00,
2013-01-13 20:22:00,50.0,49.0,-100.00,North,0,3.0,7.0,94,-99.99,,,-99.99,,2013-01-14 01:22:00,
2013-01-13 20:33:00,51.0,49.0,-100.00,NNW,330,5.0,12.0,93,-99.99,,,-99.99,,2013-01-14 01:33:00,
2013-01-13 20:42:00,51.0,49.0,-100.00,North,5,3.0,8.0,93,-99.99,,,-99.99,,2013-01-14 01:42:00,
2013-01-13 20:52:00,51.0,49.0,-100.00,North,5,3.0,8.0,93,-99.99,,,-99.99,,2013-01-14 01:52:00,
2013-01-13 21:03:00,51.0,49.0,-100.00,NW,305,3.0,10.0,92,-99.99,,,-99.99,,2013-01-14 02:03:00,
2013-01-13 21:12:00,51.0,49.0,-100.00,NW,305,3.0,8.0,92,-99.99,,,-99.99,,2013-01-14 02:12:00,